Location: Haut Kerinec
(48.0623°N, 4.4081°W)
Time: 10:11:33
(UTC+00:00)

Spot 2 Rocket - Pass Details

Date: 01 June 2020
Orbit: 758 x 771 km, 98.6° (Epoch: 07 July)

Event Time Altitude Azimuth Distance (km) Brightness Sun altitude
Exits shadow 20:44:02 - 146° (SSE) 2,680 5.7 -5.3°
Reaches altitude 10° 20:45:03 10° 144° (SE) 2,284 5.3 -5.4°
Maximum altitude 20:49:55 52° 69° (ENE) 944 3.9 -6.0°
Drops below altitude 10° 20:54:49 10° 354° (N) 2,303 6.8 -6.6°
Sets 20:57:10 0° 350° (N) 3,234 7.7 -6.9°
